Time,TemperatureF,DewpointF,PressureIn,WindDirection,WindDirectionDegrees,WindSpeedMPH,WindSpeedGustMPH,Humidity,HourlyPrecipIn,Conditions,Clouds,dailyrainin,SoftwareType,DateUTC
2013-03-01 00:00:00,31.0,31.0,29.50,WNW,297,0.0,0.0,100,0.00,,---,0.00,VWS V14.00,2013-03-01 05:00:00,
2013-03-01 00:05:00,30.8,30.6,29.50,WNW,297,0.0,0.0,99,0.00,,---,0.00,VWS V14.00,2013-03-01 05:05:00,
2013-03-01 00:06:00,30.8,30.6,29.50,WNW,297,0.0,0.0,99,0.00,,---,0.00,VWS V14.00,2013-03-01 05:06:00,
2013-03-01 00:11:00,31.2,31.2,29.50,WNW,297,0.0,0.0,100,0.00,,---,0.00,VWS V14.00,2013-03-01 05:11:00,
2013-03-01 00:16:00,31.4,31.4,29.50,WNW,297,0.0,0.0,100,0.00,,---,0.00,VWS V14.00,2013-03-01 05:16:00,
2013-03-01 00:21:00,31.0,31.0,29.50,WNW,297,0.0,0.0,100,0.00,,---,0.00,VWS V14.00,2013-03-01 05:21:00,
2013-03-01 00:26:00,30.8,30.8,29.50,WNW,297,0.0,0.0,100,0.00,,---,0.00,VWS V14.00,2013-03-01 05:26:00,
2013-03-01 00:31:00,31.0,31.0,29.50,WNW,297,0.0,0.0,100,0.00,,---,0.00,VWS V14.00,2013-03-01 05:31:00,
2013-03-01 00:36:00,31.2,31.2,29.50,WNW,297,0.0,0.0,100,0.00,,---,0.00,VWS V14.00,2013-03-01 05:36:00,
2013-03-01 00:41:00,31.4,31.4,29.50,WNW,297,0.0,0.0,100,0.00,,---,0.00,VWS V14.00,2013-03-01 05:41:00,
2013-03-01 00:46:00,31.5,31.5,29.50,WNW,297,0.0,0.0,100,0.00,,---,0.00,VWS V14.00,2013-03-01 05:46:00,
2013-03-01 00:51:00,31.7,31.7,29.50,WNW,297,0.0,0.0,100,0.00,,---,0.00,VWS V14.00,2013-03-01 05:51:00,
2013-03-01 00:56:00,31.7,31.7,29.50,WNW,297,0.0,0.0,100,0.00,,---,0.00,VWS V14.00,2013-03-01 05:56:00,
2013-03-01 01:01:00,31.5,31.5,29.50,WNW,297,0.0,0.0,100,0.00,,---,0.00,VWS V14.00,2013-03-01 06:01:00,
2013-03-01 01:06:00,31.5,31.5,29.50,WNW,297,0.0,0.0,100,0.00,,---,0.00,VWS V14.00,2013-03-01 06:06:00,
2013-03-01 01:11:00,31.5,31.5,29.50,WNW,297,0.0,0.0,100,0.00,,---,0.00,VWS V14.00,2013-03-01 06:11:00,
2013-03-01 01:16:00,31.5,31.5,29.50,WNW,297,0.0,0.0,100,0.00,,---,0.00,VWS V14.00,2013-03-01 06:16:00,
2013-03-01 01:21:00,31.2,31.2,29.50,WNW,297,0.0,0.0,100,0.00,,---,0.00,VWS V14.00,2013-03-01 06:21:00,
2013-03-01 01:26:00,31.5,31.5,29.50,WNW,297,0.0,0.0,100,0.00,,---,0.00,VWS V14.00,2013-03-01 06:26:00,
2013-03-01 01:31:00,31.9,31.9,29.50,WNW,297,0.0,0.0,100,0.00,,---,0.00,VWS V14.00,2013-03-01 06:31:00,
2013-03-01 01:36:00,32.1,32.1,29.50,WNW,297,0.0,0.0,100,0.00,,---,0.00,VWS V14.00,2013-03-01 06:36:00,
2013-03-01 01:41:00,32.3,32.3,29.50,WNW,297,0.0,0.0,100,0.00,,---,0.00,VWS V14.00,2013-03-01 06:41:00,
2013-03-01 01:46:00,32.6,32.6,29.50,WNW,297,0.0,0.0,100,0.00,,---,0.00,VWS V14.00,2013-03-01 06:46:00,
2013-03-01 01:51:00,32.4,32.4,29.50,WNW,297,0.0,0.0,100,0.00,,---,0.00,VWS V14.00,2013-03-01 06:51:00,
2013-03-01 01:56:00,32.1,32.1,29.50,WNW,297,0.0,0.0,100,0.00,,---,0.00,VWS V14.00,2013-03-01 06:56:00,
2013-03-01 02:01:00,31.7,31.7,29.50,WNW,297,0.0,0.0,100,0.00,,---,0.00,VWS V14.00,2013-03-01 07:01:00,
2013-03-01 02:06:00,31.5,31.5,29.50,WNW,297,0.0,0.0,100,0.00,,---,0.00,VWS V14.00,2013-03-01 07:06:00,
2013-03-01 02:11:00,31.5,31.5,29.50,WNW,297,0.0,0.0,100,0.00,,---,0.00,VWS V14.00,2013-03-01 07:11:00,
2013-03-01 02:16:00,31.5,31.5,29.50,WNW,297,0.0,0.0,100,0.00,,---,0.00,VWS V14.00,2013-03-01 07:16:00,
2013-03-01 02:21:00,31.5,31.5,29.50,WNW,297,0.0,0.0,100,0.00,,---,0.00,VWS V14.00,2013-03-01 07:21:00,
2013-03-01 02:26:00,31.5,31.5,29.50,WNW,297,0.0,0.0,100,0.00,,---,0.00,VWS V14.00,2013-03-01 07:26:00,
2013-03-01 02:31:00,31.4,31.4,29.50,WNW,297,0.0,0.0,100,0.00,,---,0.00,VWS V14.00,2013-03-01 07:31:00,
2013-03-01 02:36:00,31.4,31.4,29.50,WNW,297,0.0,0.0,100,0.00,,---,0.00,VWS V14.00,2013-03-01 07:36:00,
2013-03-01 02:41:00,31.2,31.2,29.50,WNW,297,0.0,0.0,100,0.00,,---,0.00,VWS V14.00,2013-03-01 07:41:00,
2013-03-01 02:46:00,31.2,31.2,29.50,WNW,297,0.0,0.0,100,0.00,,---,0.00,VWS V14.00,2013-03-01 07:46:00,
2013-03-01 02:51:00,31.2,31.2,29.50,WNW,297,0.0,0.0,100,0.00,,---,0.00,VWS V14.00,2013-03-01 07:51:00,
2013-03-01 02:56:00,31.0,31.0,29.50,WNW,297,0.0,0.0,100,0.00,,---,0.00,VWS V14.00,2013-03-01 07:56:00,
2013-03-01 03:01:00,30.6,30.6,29.50,WNW,297,0.0,0.0,100,0.00,,---,0.00,VWS V14.00,2013-03-01 08:01:00,
2013-03-01 03:06:00,30.5,30.5,29.50,WNW,297,0.0,0.0,100,0.00,,---,0.00,VWS V14.00,2013-03-01 08:06:00,
2013-03-01 03:11:00,30.1,30.1,29.50,WNW,297,0.0,0.0,100,0.00,,---,0.00,VWS V14.00,2013-03-01 08:11:00,
2013-03-01 03:16:00,30.1,30.1,29.50,WNW,297,0.0,0.0,100,0.00,,---,0.00,VWS V14.00,2013-03-01 08:16:00,
2013-03-01 03:21:00,30.1,30.1,29.50,WNW,297,0.0,0.0,100,0.00,,---,0.00,VWS V14.00,2013-03-01 08:21:00,
2013-03-01 03:26:00,29.9,29.9,29.50,WNW,297,0.0,0.0,100,0.00,,---,0.00,VWS V14.00,2013-03-01 08:26:00,
2013-03-01 03:31:00,29.7,29.7,29.50,WNW,297,0.0,0.0,100,0.00,,---,0.00,VWS V14.00,2013-03-01 08:31:00,
2013-03-01 03:36:00,29.7,29.7,29.50,WNW,297,0.0,0.0,100,0.00,,---,0.00,VWS V14.00,2013-03-01 08:36:00,
2013-03-01 03:41:00,29.6,29.6,29.50,WNW,297,0.0,0.0,100,0.00,,---,0.00,VWS V14.00,2013-03-01 08:41:00,
2013-03-01 03:46:00,29.6,29.6,29.50,WNW,297,0.0,0.0,100,0.00,,---,0.00,VWS V14.00,2013-03-01 08:46:00,
2013-03-01 03:51:00,29.6,29.6,29.50,WNW,297,0.0,0.0,100,0.00,,---,0.00,VWS V14.00,2013-03-01 08:51:00,
2013-03-01 03:56:00,29.7,29.7,29.50,WNW,297,0.0,0.0,100,0.00,,---,0.00,VWS V14.00,2013-03-01 08:56:00,
2013-03-01 04:01:00,29.7,29.7,29.50,WNW,297,0.0,0.0,100,0.00,,---,0.00,VWS V14.00,2013-03-01 09:01:00,
2013-03-01 04:06:00,29.7,29.7,29.50,WNW,297,0.0,0.0,100,0.00,,---,0.00,VWS V14.00,2013-03-01 09:06:00,
2013-03-01 04:11:00,29.7,29.7,29.50,WNW,297,0.0,0.0,100,0.00,,---,0.00,VWS V14.00,2013-03-01 09:11:00,
2013-03-01 04:16:00,30.3,30.3,29.50,WNW,297,0.0,0.0,100,0.00,,---,0.00,VWS V14.00,2013-03-01 09:16:00,
2013-03-01 04:21:00,30.8,30.8,29.50,WNW,297,0.0,0.0,100,0.00,,---,0.00,VWS V14.00,2013-03-01 09:21:00,
2013-03-01 04:26:00,31.0,31.0,29.53,WNW,297,0.0,0.0,100,0.00,,---,0.00,VWS V14.00,2013-03-01 09:26:00,
2013-03-01 04:31:00,31.2,31.2,29.53,WNW,297,0.0,0.0,100,0.00,,---,0.00,VWS V14.00,2013-03-01 09:31:00,
2013-03-01 04:36:00,31.4,31.4,29.53,WNW,297,0.0,0.0,100,0.00,,---,0.00,VWS V14.00,2013-03-01 09:36:00,
2013-03-01 04:41:00,31.5,31.5,29.53,WNW,297,0.0,0.0,100,0.00,,---,0.00,VWS V14.00,2013-03-01 09:41:00,
2013-03-01 04:46:00,31.7,31.7,29.53,WNW,297,0.0,0.0,100,0.00,,---,0.00,VWS V14.00,2013-03-01 09:46:00,
2013-03-01 04:51:00,31.7,31.7,29.53,WNW,297,0.0,0.0,100,0.00,,---,0.00,VWS V14.00,2013-03-01 09:51:00,
2013-03-01 04:56:00,31.5,31.5,29.53,WNW,297,0.0,0.0,100,0.00,,---,0.00,VWS V14.00,2013-03-01 09:56:00,
2013-03-01 05:01:00,31.7,31.7,29.53,WNW,297,0.0,0.0,100,0.00,,---,0.00,VWS V14.00,2013-03-01 10:01:00,
2013-03-01 05:06:00,31.7,31.7,29.53,WNW,297,0.0,0.0,100,0.00,,---,0.00,VWS V14.00,2013-03-01 10:06:00,
2013-03-01 05:11:00,31.5,31.5,29.53,WNW,297,0.0,0.0,100,0.00,,---,0.00,VWS V14.00,2013-03-01 10:11:00,
2013-03-01 05:16:00,31.5,31.5,29.53,WNW,297,0.0,0.0,100,0.00,,---,0.00,VWS V14.00,2013-03-01 10:16:00,
2013-03-01 05:21:00,31.4,31.4,29.53,WNW,297,0.0,0.0,100,0.00,,---,0.00,VWS V14.00,2013-03-01 10:21:00,
2013-03-01 05:26:00,31.2,31.2,29.53,WNW,297,0.0,0.0,100,0.00,,---,0.00,VWS V14.00,2013-03-01 10:26:00,
2013-03-01 05:31:00,31.2,31.2,29.53,WNW,297,0.0,0.0,100,0.00,,---,0.00,VWS V14.00,2013-03-01 10:31:00,
2013-03-01 05:36:00,31.4,31.4,29.53,WNW,297,0.0,0.0,100,0.00,,---,0.00,VWS V14.00,2013-03-01 10:36:00,
2013-03-01 05:41:00,31.5,31.5,29.53,WNW,297,0.0,0.0,100,0.00,,---,0.00,VWS V14.00,2013-03-01 10:41:00,
2013-03-01 05:46:00,31.5,31.5,29.53,WNW,297,0.0,0.0,100,0.00,,---,0.00,VWS V14.00,2013-03-01 10:46:00,
2013-03-01 05:51:00,31.7,31.7,29.53,WNW,297,0.0,0.0,100,0.00,,---,0.00,VWS V14.00,2013-03-01 10:51:00,
2013-03-01 05:56:00,32.1,32.1,29.53,WNW,297,0.0,0.0,100,0.00,,---,0.00,VWS V14.00,2013-03-01 10:56:00,
2013-03-01 06:01:00,32.1,32.1,29.53,WNW,297,0.0,0.0,100,0.00,,---,0.00,VWS V14.00,2013-03-01 11:01:00,
2013-03-01 06:06:00,32.1,32.1,29.53,WNW,297,0.0,0.0,100,0.00,,---,0.00,VWS V14.00,2013-03-01 11:06:00,
2013-03-01 06:11:00,32.1,32.1,29.56,WNW,297,0.0,0.0,100,0.00,,---,0.00,VWS V14.00,2013-03-01 11:11:00,
2013-03-01 06:16:00,32.1,32.1,29.56,WNW,297,0.0,0.0,100,0.00,,---,0.00,VWS V14.00,2013-03-01 11:16:00,
2013-03-01 06:21:00,32.1,32.1,29.56,WNW,297,0.0,0.0,100,0.00,,---,0.00,VWS V14.00,2013-03-01 11:21:00,
2013-03-01 06:26:00,32.3,32.3,29.56,WNW,297,0.0,0.0,100,0.00,,---,0.00,VWS V14.00,2013-03-01 11:26:00,
2013-03-01 06:31:00,32.3,32.3,29.56,WNW,297,0.0,0.0,100,0.00,,---,0.00,VWS V14.00,2013-03-01 11:31:00,
2013-03-01 06:36:00,32.3,32.3,29.56,WNW,297,0.0,0.0,100,0.00,,---,0.00,VWS V14.00,2013-03-01 11:36:00,
2013-03-01 06:41:00,32.3,32.3,29.56,WNW,297,0.0,0.0,100,0.00,,---,0.00,VWS V14.00,2013-03-01 11:41:00,
2013-03-01 06:46:00,32.3,32.3,29.56,WNW,297,0.0,0.0,100,0.00,,---,0.00,VWS V14.00,2013-03-01 11:46:00,
2013-03-01 06:51:00,32.6,32.6,29.56,WNW,297,0.0,0.0,100,0.00,,---,0.00,VWS V14.00,2013-03-01 11:51:00,
2013-03-01 06:56:00,32.8,32.8,29.56,WNW,297,0.0,0.0,100,0.00,,---,0.00,VWS V14.00,2013-03-01 11:56:00,
2013-03-01 07:01:00,32.8,32.8,29.56,WNW,297,0.0,0.0,100,0.00,,---,0.00,VWS V14.00,2013-03-01 12:01:00,
2013-03-01 07:06:00,33.0,33.0,29.56,WNW,297,0.0,0.0,100,0.00,,---,0.00,VWS V14.00,2013-03-01 12:06:00,
2013-03-01 07:11:00,33.3,33.3,29.56,NW,311,2.2,2.2,100,0.00,,---,0.00,VWS V14.00,2013-03-01 12:11:00,
2013-03-01 07:16:00,33.5,33.5,29.56,NW,312,2.2,2.2,100,0.00,,---,0.00,VWS V14.00,2013-03-01 12:16:00,
2013-03-01 07:21:00,33.5,33.5,29.56,NW,305,0.0,0.0,100,0.00,,---,0.00,VWS V14.00,2013-03-01 12:21:00,
2013-03-01 07:26:00,33.5,33.3,29.56,NW,305,0.0,0.0,99,0.00,,---,0.00,VWS V14.00,2013-03-01 12:26:00,
2013-03-01 07:31:00,33.9,32.9,29.56,NW,305,2.2,2.2,96,0.00,,---,0.00,VWS V14.00,2013-03-01 12:31:00,
2013-03-01 07:36:00,33.9,31.8,29.56,NW,305,0.0,0.0,92,0.00,,---,0.00,VWS V14.00,2013-03-01 12:36:00,
2013-03-01 07:41:00,34.1,31.4,29.56,NW,314,2.2,2.2,90,0.00,,---,0.00,VWS V14.00,2013-03-01 12:41:00,
2013-03-01 07:46:00,34.1,30.6,29.56,NW,305,2.7,2.7,87,0.00,,---,0.00,VWS V14.00,2013-03-01 12:46:00,
2013-03-01 07:51:00,34.2,29.6,29.56,WNW,301,2.2,2.7,83,0.00,,---,0.00,VWS V14.00,2013-03-01 12:51:00,
2013-03-01 07:56:00,34.4,29.5,29.59,NW,324,0.0,2.7,82,0.00,,---,0.00,VWS V14.00,2013-03-01 12:56:00,
2013-03-01 08:01:00,34.6,28.1,29.59,WNW,303,3.6,4.9,77,0.00,,---,0.00,VWS V14.00,2013-03-01 13:01:00,
2013-03-01 08:06:00,35.0,28.2,29.59,NW,316,0.0,3.6,76,0.00,,---,0.00,VWS V14.00,2013-03-01 13:06:00,
2013-03-01 08:11:00,35.3,27.5,29.59,WNW,300,2.7,4.0,73,0.00,,---,0.00,VWS V14.00,2013-03-01 13:11:00,
2013-03-01 08:16:00,35.5,27.0,29.59,WNW,300,4.0,4.0,71,0.00,,---,0.00,VWS V14.00,2013-03-01 13:16:00,
2013-03-01 08:21:00,35.7,27.2,29.59,NW,318,3.1,3.6,71,0.00,,---,0.00,VWS V14.00,2013-03-01 13:21:00,
2013-03-01 08:26:00,36.0,27.2,29.59,WNW,288,4.0,4.0,70,0.00,,---,0.00,VWS V14.00,2013-03-01 13:26:00,
2013-03-01 08:31:00,36.6,27.0,29.59,NW,324,3.6,5.4,68,0.00,,---,0.00,VWS V14.00,2013-03-01 13:31:00,
2013-03-01 08:36:00,36.9,27.0,29.59,NW,317,4.9,4.9,67,0.00,,---,0.00,VWS V14.00,2013-03-01 13:36:00,
2013-03-01 08:41:00,36.9,26.3,29.59,WNW,295,5.8,5.8,65,0.00,,---,0.00,VWS V14.00,2013-03-01 13:41:00,
2013-03-01 08:46:00,36.8,26.1,29.59,NW,305,5.4,6.7,65,0.00,,---,0.00,VWS V14.00,2013-03-01 13:46:00,
2013-03-01 08:51:00,37.1,25.3,29.59,NW,320,6.3,7.6,62,0.00,,---,0.00,VWS V14.00,2013-03-01 13:51:00,
2013-03-01 08:56:00,37.5,24.9,29.59,NW,310,6.3,6.3,60,0.00,,---,0.00,VWS V14.00,2013-03-01 13:56:00,
2013-03-01 09:01:00,37.5,24.9,29.59,West,280,7.6,7.6,60,0.00,,---,0.00,VWS V14.00,2013-03-01 14:01:00,
2013-03-01 09:06:00,37.7,25.4,29.59,NW,310,5.8,7.2,61,0.00,,---,0.00,VWS V14.00,2013-03-01 14:06:00,
2013-03-01 09:11:00,37.7,25.0,29.59,NW,321,3.1,3.1,60,0.00,,---,0.00,VWS V14.00,2013-03-01 14:11:00,
2013-03-01 09:16:00,37.7,25.0,29.59,WNW,292,3.1,4.0,60,0.00,,---,0.00,VWS V14.00,2013-03-01 14:16:00,
2013-03-01 09:21:00,37.8,24.8,29.59,NW,316,7.2,8.7,59,0.00,,---,0.00,VWS V14.00,2013-03-01 14:21:00,
2013-03-01 09:26:00,37.7,24.6,29.59,NNW,330,7.6,7.6,59,0.00,,---,0.00,VWS V14.00,2013-03-01 14:26:00,
2013-03-01 09:31:00,37.7,24.6,29.59,WNW,302,5.4,5.8,59,0.00,,---,0.00,VWS V14.00,2013-03-01 14:31:00,
2013-03-01 09:36:00,37.7,24.6,29.59,WNW,303,5.8,6.3,59,0.00,,---,0.00,VWS V14.00,2013-03-01 14:36:00,
2013-03-01 09:41:00,37.8,24.8,29.59,NW,322,3.6,3.6,59,0.00,,---,0.00,VWS V14.00,2013-03-01 14:41:00,
2013-03-01 09:46:00,38.0,24.6,29.59,NW,311,5.4,6.3,58,0.00,,---,0.00,VWS V14.00,2013-03-01 14:46:00,
2013-03-01 09:51:00,38.0,24.6,29.59,NNW,331,4.0,4.0,58,0.00,,---,0.00,VWS V14.00,2013-03-01 14:51:00,
2013-03-01 09:56:00,38.2,24.7,29.59,North,359,4.9,5.8,58,0.00,,---,0.00,VWS V14.00,2013-03-01 14:56:00,
2013-03-01 10:01:00,38.4,24.9,29.59,North,356,3.6,4.9,58,0.00,,---,0.00,VWS V14.00,2013-03-01 15:01:00,
2013-03-01 10:06:00,38.7,24.8,29.59,NNW,330,0.0,2.7,57,0.00,,---,0.00,VWS V14.00,2013-03-01 15:06:00,
2013-03-01 10:11:00,38.7,24.8,29.59,NNW,327,5.8,5.8,57,0.00,,---,0.00,VWS V14.00,2013-03-01 15:11:00,
2013-03-01 10:16:00,38.7,24.8,29.59,NNW,346,2.7,4.0,57,0.00,,---,0.00,VWS V14.00,2013-03-01 15:16:00,
2013-03-01 10:21:00,38.9,24.1,29.59,NW,324,3.1,4.0,55,0.00,,---,0.00,VWS V14.00,2013-03-01 15:21:00,
2013-03-01 10:26:00,39.1,24.3,29.59,NW,326,4.0,5.4,55,0.00,,---,0.00,VWS V14.00,2013-03-01 15:26:00,
2013-03-01 10:31:00,39.5,24.6,29.59,NW,317,5.8,5.8,55,0.00,,---,0.00,VWS V14.00,2013-03-01 15:31:00,
2013-03-01 10:36:00,39.6,24.8,29.59,NW,323,4.0,5.4,55,0.00,,---,0.00,VWS V14.00,2013-03-01 15:36:00,
2013-03-01 10:41:00,40.0,26.0,29.59,NNW,346,4.0,5.4,57,0.00,,---,0.00,VWS V14.00,2013-03-01 15:41:00,
2013-03-01 10:46:00,40.2,25.3,29.59,NNW,328,3.6,3.6,55,0.00,,---,0.00,VWS V14.00,2013-03-01 15:46:00,
2013-03-01 10:51:00,40.5,24.3,29.59,NNW,336,3.6,3.6,52,0.00,,---,0.00,VWS V14.00,2013-03-01 15:51:00,
2013-03-01 10:56:00,40.9,24.6,29.59,NW,317,4.0,4.0,52,0.00,,---,0.00,VWS V14.00,2013-03-01 15:56:00,
2013-03-01 11:01:00,41.3,25.0,29.59,NNW,335,4.0,4.0,52,0.00,,---,0.00,VWS V14.00,2013-03-01 16:01:00,
2013-03-01 11:06:00,41.3,25.0,29.59,NW,320,5.4,8.1,52,0.00,,---,0.00,VWS V14.00,2013-03-01 16:06:00,
2013-03-01 11:11:00,42.2,24.4,29.59,NW,317,3.6,4.9,49,0.00,,---,0.00,VWS V14.00,2013-03-01 16:11:00,
2013-03-01 11:16:00,42.7,24.9,29.59,WNW,288,5.4,5.4,49,0.00,,---,0.00,VWS V14.00,2013-03-01 16:16:00,
2013-03-01 11:21:00,42.3,24.5,29.59,NNW,331,4.9,5.4,49,0.00,,---,0.00,VWS V14.00,2013-03-01 16:21:00,
2013-03-01 11:26:00,42.0,24.2,29.59,NNW,346,3.6,4.9,49,0.00,,---,0.00,VWS V14.00,2013-03-01 16:26:00,
2013-03-01 11:31:00,42.5,24.7,29.59,NW,320,5.8,6.3,49,0.00,,---,0.00,VWS V14.00,2013-03-01 16:31:00,
2013-03-01 11:36:00,42.7,24.9,29.59,NNW,327,3.1,3.1,49,0.00,,---,0.00,VWS V14.00,2013-03-01 16:36:00,
2013-03-01 11:41:00,42.5,24.7,29.59,NNW,336,3.6,4.0,49,0.00,,---,0.00,VWS V14.00,2013-03-01 16:41:00,
2013-03-01 11:46:00,42.7,24.9,29.59,WNW,300,4.0,4.0,49,0.00,,---,0.00,VWS V14.00,2013-03-01 16:46:00,
2013-03-01 11:51:00,43.2,25.4,29.59,NW,325,2.7,5.4,49,0.00,,---,0.00,VWS V14.00,2013-03-01 16:51:00,
2013-03-01 11:55:00,42.7,24.9,29.59,NW,309,4.0,4.0,49,0.00,,---,0.00,VWS V14.00,2013-03-01 16:55:00,
2013-03-01 12:00:00,42.7,24.9,29.59,NW,319,5.4,5.4,49,0.00,,---,0.00,VWS V14.00,2013-03-01 17:00:00,
2013-03-01 12:05:00,42.5,24.7,29.59,NNW,327,5.4,5.4,49,0.00,,---,0.00,VWS V14.00,2013-03-01 17:05:00,
2013-03-01 12:10:00,42.3,24.5,29.59,NW,310,3.6,4.0,49,0.00,,---,0.00,VWS V14.00,2013-03-01 17:10:00,
2013-03-01 12:15:00,42.0,24.2,29.59,North,356,5.4,5.8,49,0.00,,---,0.00,VWS V14.00,2013-03-01 17:15:00,
2013-03-01 12:20:00,42.0,24.2,29.59,NW,321,3.1,5.8,49,0.00,,---,0.00,VWS V14.00,2013-03-01 17:20:00,
2013-03-01 12:25:00,42.2,24.4,29.59,NW,305,7.2,7.2,49,0.00,,---,0.00,VWS V14.00,2013-03-01 17:25:00,
2013-03-01 12:30:00,42.2,24.4,29.59,NW,324,5.4,5.8,49,0.00,,---,0.00,VWS V14.00,2013-03-01 17:30:00,
2013-03-01 12:35:00,42.0,24.2,29.59,NW,321,4.0,4.0,49,0.00,,---,0.00,VWS V14.00,2013-03-01 17:35:00,
2013-03-01 12:40:00,42.0,24.2,29.59,North,350,4.0,5.4,49,0.00,,---,0.00,VWS V14.00,2013-03-01 17:40:00,
2013-03-01 12:45:00,42.0,24.2,29.59,NW,311,6.3,6.3,49,0.00,,---,0.00,VWS V14.00,2013-03-01 17:45:00,
2013-03-01 12:50:00,42.0,24.2,29.59,NNW,327,6.3,6.3,49,0.00,,---,0.00,VWS V14.00,2013-03-01 17:50:00,
2013-03-01 12:55:00,42.0,24.2,29.56,NW,310,4.0,4.0,49,0.00,,---,0.00,VWS V14.00,2013-03-01 17:55:00,
2013-03-01 13:00:00,41.4,24.2,29.56,NW,314,4.9,6.3,50,0.00,,---,0.00,VWS V14.00,2013-03-01 18:00:00,
2013-03-01 13:05:00,41.3,24.0,29.56,NNW,339,3.1,4.0,50,0.00,,---,0.00,VWS V14.00,2013-03-01 18:05:00,
2013-03-01 13:10:00,41.3,24.0,29.56,NW,324,6.3,7.6,50,0.00,,---,0.00,VWS V14.00,2013-03-01 18:10:00,
2013-03-01 13:15:00,41.1,23.9,29.56,NW,319,4.0,4.0,50,0.00,,---,0.00,VWS V14.00,2013-03-01 18:15:00,
2013-03-01 13:20:00,41.3,24.0,29.56,NW,304,4.9,5.4,50,0.00,,---,0.00,VWS V14.00,2013-03-01 18:20:00,
2013-03-01 13:25:00,41.4,24.2,29.56,NW,314,4.9,5.4,50,0.00,,---,0.00,VWS V14.00,2013-03-01 18:25:00,
2013-03-01 13:30:00,41.4,24.2,29.56,WNW,302,5.4,5.4,50,0.00,,---,0.00,VWS V14.00,2013-03-01 18:30:00,
2013-03-01 13:35:00,41.1,23.9,29.56,WNW,299,5.4,6.3,50,0.00,,---,0.00,VWS V14.00,2013-03-01 18:35:00,
2013-03-01 13:40:00,40.9,23.7,29.56,NNW,332,3.6,5.4,50,0.00,,---,0.00,VWS V14.00,2013-03-01 18:40:00,
2013-03-01 13:45:00,40.5,23.4,29.56,WNW,302,3.1,4.0,50,0.00,,---,0.00,VWS V14.00,2013-03-01 18:45:00,
2013-03-01 13:50:00,40.5,23.4,29.56,WNW,300,3.6,4.0,50,0.00,,---,0.00,VWS V14.00,2013-03-01 18:50:00,
2013-03-01 13:55:00,40.4,23.2,29.56,NW,319,4.5,5.4,50,0.00,,---,0.00,VWS V14.00,2013-03-01 18:55:00,
2013-03-01 14:00:00,40.4,23.2,29.56,NW,325,5.4,5.4,50,0.00,,---,0.00,VWS V14.00,2013-03-01 19:00:00,
2013-03-01 14:05:00,40.4,23.2,29.56,WNW,298,4.0,5.4,50,0.00,,---,0.00,VWS V14.00,2013-03-01 19:05:00,
2013-03-01 14:10:00,40.2,23.0,29.56,WNW,300,5.4,6.7,50,0.00,,---,0.00,VWS V14.00,2013-03-01 19:10:00,
2013-03-01 14:15:00,40.2,23.0,29.56,NW,325,5.4,5.8,50,0.00,,---,0.00,VWS V14.00,2013-03-01 19:15:00,
2013-03-01 14:20:00,40.2,23.0,29.56,NW,324,3.1,5.8,50,0.00,,---,0.00,VWS V14.00,2013-03-01 19:20:00,
2013-03-01 14:25:00,40.2,23.0,29.59,NW,322,4.0,5.4,50,0.00,,---,0.00,VWS V14.00,2013-03-01 19:25:00,
2013-03-01 14:30:00,40.2,23.0,29.59,NNW,329,5.4,6.3,50,0.00,,---,0.00,VWS V14.00,2013-03-01 19:30:00,
2013-03-01 14:35:00,40.2,23.0,29.59,NW,326,3.6,4.9,50,0.00,,---,0.00,VWS V14.00,2013-03-01 19:35:00,
2013-03-01 14:40:00,40.2,23.0,29.59,NW,314,3.6,5.4,50,0.00,,---,0.00,VWS V14.00,2013-03-01 19:40:00,
2013-03-01 14:45:00,40.2,23.0,29.59,NNW,327,5.4,5.4,50,0.00,,---,0.00,VWS V14.00,2013-03-01 19:45:00,
2013-03-01 14:50:00,40.0,22.9,29.59,NW,309,5.4,5.4,50,0.00,,---,0.00,VWS V14.00,2013-03-01 19:50:00,
2013-03-01 14:55:00,39.8,22.7,29.59,NW,325,4.9,6.3,50,0.00,,---,0.00,VWS V14.00,2013-03-01 19:55:00,
2013-03-01 15:00:00,39.6,22.5,29.59,NW,312,5.4,5.8,50,0.00,,---,0.00,VWS V14.00,2013-03-01 20:00:00,
2013-03-01 15:05:00,39.5,22.4,29.59,NW,326,5.4,5.4,50,0.00,,---,0.00,VWS V14.00,2013-03-01 20:05:00,
2013-03-01 15:10:00,39.5,22.4,29.59,West,259,3.1,5.4,50,0.00,,---,0.00,VWS V14.00,2013-03-01 20:10:00,
2013-03-01 15:15:00,39.5,22.4,29.59,NW,317,4.0,4.5,50,0.00,,---,0.00,VWS V14.00,2013-03-01 20:15:00,
2013-03-01 15:20:00,39.3,22.2,29.59,NNW,343,3.6,4.5,50,0.00,,---,0.00,VWS V14.00,2013-03-01 20:20:00,
2013-03-01 15:25:00,39.1,22.0,29.59,NNW,327,3.1,3.6,50,0.00,,---,0.00,VWS V14.00,2013-03-01 20:25:00,
2013-03-01 15:30:00,38.9,21.9,29.59,NNW,343,4.0,4.0,50,0.00,,---,0.00,VWS V14.00,2013-03-01 20:30:00,
2013-03-01 15:35:00,38.7,21.7,29.59,NNW,347,5.4,5.4,50,0.00,,---,0.00,VWS V14.00,2013-03-01 20:35:00,
2013-03-01 15:40:00,38.7,21.7,29.59,NNW,330,5.4,5.8,50,0.00,,---,0.00,VWS V14.00,2013-03-01 20:40:00,
2013-03-01 15:45:00,38.6,21.5,29.59,NW,317,3.6,4.0,50,0.00,,---,0.00,VWS V14.00,2013-03-01 20:45:00,
2013-03-01 15:50:00,38.6,21.5,29.59,NNW,343,4.9,4.9,50,0.00,,---,0.00,VWS V14.00,2013-03-01 20:50:00,
2013-03-01 15:55:00,38.4,21.4,29.59,NNW,346,4.0,4.0,50,0.00,,---,0.00,VWS V14.00,2013-03-01 20:55:00,
2013-03-01 16:00:00,38.4,21.4,29.59,NNW,329,3.1,4.9,50,0.00,,---,0.00,VWS V14.00,2013-03-01 21:00:00,
2013-03-01 16:05:00,38.2,21.2,29.59,WNW,302,5.4,5.4,50,0.00,,---,0.00,VWS V14.00,2013-03-01 21:05:00,
2013-03-01 16:10:00,38.2,21.2,29.59,NW,325,4.0,4.0,50,0.00,,---,0.00,VWS V14.00,2013-03-01 21:10:00,
2013-03-01 16:15:00,38.2,21.2,29.59,NW,318,2.2,3.1,50,0.00,,---,0.00,VWS V14.00,2013-03-01 21:15:00,
2013-03-01 16:20:00,38.0,21.0,29.59,NW,311,2.7,4.9,50,0.00,,---,0.00,VWS V14.00,2013-03-01 21:20:00,
2013-03-01 16:25:00,38.0,21.0,29.62,NW,322,4.0,4.0,50,0.00,,---,0.00,VWS V14.00,2013-03-01 21:25:00,
2013-03-01 16:30:00,37.8,20.9,29.62,NW,306,3.1,3.6,50,0.00,,---,0.00,VWS V14.00,2013-03-01 21:30:00,
2013-03-01 16:35:00,37.8,20.9,29.62,WNW,300,4.9,4.9,50,0.00,,---,0.00,VWS V14.00,2013-03-01 21:35:00,
2013-03-01 16:40:00,37.7,20.7,29.62,North,1,4.0,4.0,50,0.00,,---,0.00,VWS V14.00,2013-03-01 21:40:00,
2013-03-01 16:45:00,37.7,20.7,29.62,NW,321,2.7,3.6,50,0.00,,---,0.00,VWS V14.00,2013-03-01 21:45:00,
2013-03-01 16:50:00,37.7,20.7,29.62,NW,324,3.1,3.1,50,0.00,,---,0.00,VWS V14.00,2013-03-01 21:50:00,
2013-03-01 16:55:00,37.7,20.7,29.62,WNW,296,3.6,3.6,50,0.00,,---,0.00,VWS V14.00,2013-03-01 21:55:00,
2013-03-01 17:00:00,37.7,20.7,29.62,North,0,3.1,3.1,50,0.00,,---,0.00,VWS V14.00,2013-03-01 22:00:00,
2013-03-01 17:05:00,37.5,20.5,29.62,NNW,330,3.1,4.0,50,0.00,,---,0.00,VWS V14.00,2013-03-01 22:05:00,
2013-03-01 17:10:00,37.3,20.4,29.62,NW,323,2.7,3.1,50,0.00,,---,0.00,VWS V14.00,2013-03-01 22:10:00,
2013-03-01 17:15:00,37.1,20.2,29.62,NW,325,3.6,3.6,50,0.00,,---,0.00,VWS V14.00,2013-03-01 22:15:00,
2013-03-01 17:20:00,37.1,20.2,29.62,NNW,343,2.7,2.7,50,0.00,,---,0.00,VWS V14.00,2013-03-01 22:20:00,
2013-03-01 17:25:00,37.1,20.2,29.62,NW,326,3.1,3.1,50,0.00,,---,0.00,VWS V14.00,2013-03-01 22:25:00,
2013-03-01 17:30:00,37.1,20.2,29.62,NNW,329,3.6,3.6,50,0.00,,---,0.00,VWS V14.00,2013-03-01 22:30:00,
2013-03-01 17:35:00,37.1,20.2,29.62,North,4,2.7,4.0,50,0.00,,---,0.00,VWS V14.00,2013-03-01 22:35:00,
2013-03-01 17:40:00,37.1,20.2,29.62,NW,322,4.0,4.0,50,0.00,,---,0.00,VWS V14.00,2013-03-01 22:40:00,
2013-03-01 17:45:00,37.1,20.2,29.62,NNW,330,3.6,3.6,50,0.00,,---,0.00,VWS V14.00,2013-03-01 22:45:00,
2013-03-01 17:50:00,36.9,20.0,29.62,NW,318,2.2,4.5,50,0.00,,---,0.00,VWS V14.00,2013-03-01 22:50:00,
2013-03-01 17:55:00,36.9,20.0,29.62,NW,310,2.7,2.7,50,0.00,,---,0.00,VWS V14.00,2013-03-01 22:55:00,
2013-03-01 18:00:00,36.9,20.0,29.62,NNW,339,3.6,3.6,50,0.00,,---,0.00,VWS V14.00,2013-03-01 23:00:00,
2013-03-01 18:05:00,36.9,20.0,29.62,NNW,343,3.1,3.6,50,0.00,,---,0.00,VWS V14.00,2013-03-01 23:05:00,
2013-03-01 18:10:00,36.8,21.2,29.62,NW,320,4.0,4.0,53,0.00,,---,0.00,VWS V14.00,2013-03-01 23:10:00,
2013-03-01 18:15:00,36.8,19.9,29.62,NW,310,3.6,3.6,50,0.00,,---,0.00,VWS V14.00,2013-03-01 23:15:00,
2013-03-01 18:20:00,36.8,21.2,29.62,NW,304,0.0,2.7,53,0.00,,---,0.00,VWS V14.00,2013-03-01 23:20:00,
2013-03-01 18:25:00,36.6,19.7,29.62,North,6,0.0,2.2,50,0.00,,---,0.00,VWS V14.00,2013-03-01 23:25:00,
2013-03-01 18:30:00,36.8,21.2,29.62,WNW,293,4.0,4.0,53,0.00,,---,0.00,VWS V14.00,2013-03-01 23:30:00,
2013-03-01 18:35:00,36.8,21.2,29.62,NNW,331,3.6,3.6,53,0.00,,---,0.00,VWS V14.00,2013-03-01 23:35:00,
2013-03-01 18:40:00,36.6,21.1,29.65,NW,318,2.7,3.6,53,0.00,,---,0.00,VWS V14.00,2013-03-01 23:40:00,
2013-03-01 18:45:00,36.6,21.1,29.65,NW,314,2.7,2.7,53,0.00,,---,0.00,VWS V14.00,2013-03-01 23:45:00,
2013-03-01 18:50:00,36.6,21.1,29.65,NW,319,2.7,4.0,53,0.00,,---,0.00,VWS V14.00,2013-03-01 23:50:00,
2013-03-01 18:55:00,36.6,21.1,29.65,NNW,339,3.1,4.0,53,0.00,,---,0.00,VWS V14.00,2013-03-01 23:55:00,
2013-03-01 19:00:00,36.6,21.1,29.65,NW,317,3.6,3.6,53,0.00,,---,0.00,VWS V14.00,2013-03-02 00:00:00,
2013-03-01 19:05:00,36.6,21.1,29.65,NW,311,3.6,3.6,53,0.00,,---,0.00,VWS V14.00,2013-03-02 00:05:00,
2013-03-01 19:10:00,36.4,20.9,29.65,NW,304,3.1,4.0,53,0.00,,---,0.00,VWS V14.00,2013-03-02 00:10:00,
2013-03-01 19:15:00,36.4,20.9,29.65,NW,317,3.1,3.1,53,0.00,,---,0.00,VWS V14.00,2013-03-02 00:15:00,
2013-03-01 19:20:00,36.4,20.9,29.65,NW,322,2.7,3.1,53,0.00,,---,0.00,VWS V14.00,2013-03-02 00:20:00,
2013-03-01 19:25:00,36.4,20.9,29.65,NW,321,2.7,3.6,53,0.00,,---,0.00,VWS V14.00,2013-03-02 00:25:00,
2013-03-01 19:30:00,36.2,20.8,29.65,NW,313,4.5,4.5,53,0.00,,---,0.00,VWS V14.00,2013-03-02 00:30:00,
2013-03-01 19:35:00,36.2,20.8,29.65,NW,306,5.8,6.3,53,0.00,,---,0.00,VWS V14.00,2013-03-02 00:35:00,
2013-03-01 19:40:00,36.0,20.6,29.65,NW,316,5.4,5.4,53,0.00,,---,0.00,VWS V14.00,2013-03-02 00:40:00,
2013-03-01 19:45:00,36.0,20.6,29.65,NW,319,4.0,4.0,53,0.00,,---,0.00,VWS V14.00,2013-03-02 00:45:00,
2013-03-01 19:50:00,36.0,20.6,29.65,NW,324,4.9,4.9,53,0.00,,---,0.00,VWS V14.00,2013-03-02 00:50:00,
2013-03-01 19:55:00,36.0,20.6,29.65,NW,316,4.9,4.9,53,0.00,,---,0.00,VWS V14.00,2013-03-02 00:55:00,
2013-03-01 20:00:00,35.9,20.4,29.65,NW,314,4.0,4.0,53,0.00,,---,0.00,VWS V14.00,2013-03-02 01:00:00,
2013-03-01 20:05:00,35.9,20.4,29.65,NW,318,3.6,3.6,53,0.00,,---,0.00,VWS V14.00,2013-03-02 01:05:00,
2013-03-01 20:10:00,35.9,20.4,29.65,NW,317,3.1,4.9,53,0.00,,---,0.00,VWS V14.00,2013-03-02 01:10:00,
2013-03-01 20:15:00,35.9,20.4,29.65,NW,317,3.1,3.1,53,0.00,,---,0.00,VWS V14.00,2013-03-02 01:15:00,
2013-03-01 20:20:00,35.7,20.2,29.65,NW,315,2.7,2.7,53,0.00,,---,0.00,VWS V14.00,2013-03-02 01:20:00,
2013-03-01 20:25:00,35.7,20.2,29.65,NW,314,3.6,3.6,53,0.00,,---,0.00,VWS V14.00,2013-03-02 01:25:00,
2013-03-01 20:30:00,35.7,21.5,29.65,NW,319,3.1,3.6,56,0.00,,---,0.00,VWS V14.00,2013-03-02 01:30:00,
2013-03-01 20:35:00,35.5,21.4,29.65,WNW,299,2.7,2.7,56,0.00,,---,0.00,VWS V14.00,2013-03-02 01:35:00,
2013-03-01 20:40:00,35.5,21.4,29.65,NW,324,4.0,4.0,56,0.00,,---,0.00,VWS V14.00,2013-03-02 01:40:00,
2013-03-01 20:45:00,35.3,21.2,29.65,NW,310,3.1,4.0,56,0.00,,---,0.00,VWS V14.00,2013-03-02 01:45:00,
2013-03-01 20:50:00,35.3,21.2,29.65,NW,308,3.1,3.6,56,0.00,,---,0.00,VWS V14.00,2013-03-02 01:50:00,
2013-03-01 20:55:00,35.3,22.0,29.65,WNW,299,3.6,3.6,58,0.00,,---,0.00,VWS V14.00,2013-03-02 01:55:00,
2013-03-01 21:00:00,35.1,22.3,29.65,NW,309,4.0,4.0,59,0.00,,---,0.00,VWS V14.00,2013-03-02 02:00:00,
2013-03-01 21:05:00,35.1,22.3,29.65,NW,320,3.6,3.6,59,0.00,,---,0.00,VWS V14.00,2013-03-02 02:05:00,
2013-03-01 21:10:00,35.1,21.9,29.65,NW,307,3.1,3.1,58,0.00,,---,0.00,VWS V14.00,2013-03-02 02:10:00,
2013-03-01 21:15:00,35.1,21.9,29.65,NW,306,3.6,3.6,58,0.00,,---,0.00,VWS V14.00,2013-03-02 02:15:00,
2013-03-01 21:20:00,35.1,21.9,29.65,NW,306,2.7,2.7,58,0.00,,---,0.00,VWS V14.00,2013-03-02 02:20:00,
2013-03-01 21:25:00,35.0,22.1,29.65,NW,307,3.6,3.6,59,0.00,,---,0.00,VWS V14.00,2013-03-02 02:25:00,
2013-03-01 21:30:00,35.0,22.1,29.65,NW,310,2.7,3.1,59,0.00,,---,0.00,VWS V14.00,2013-03-02 02:30:00,
2013-03-01 21:35:00,34.8,21.9,29.65,NW,312,2.7,3.1,59,0.00,,---,0.00,VWS V14.00,2013-03-02 02:35:00,
2013-03-01 21:40:00,34.8,21.9,29.65,WNW,287,4.0,4.0,59,0.00,,---,0.00,VWS V14.00,2013-03-02 02:40:00,
2013-03-01 21:45:00,34.8,21.9,29.65,NW,311,2.7,3.6,59,0.00,,---,0.00,VWS V14.00,2013-03-02 02:45:00,
2013-03-01 21:50:00,34.8,21.9,29.65,NW,311,4.0,4.0,59,0.00,,---,0.00,VWS V14.00,2013-03-02 02:50:00,
2013-03-01 21:55:00,34.6,21.8,29.65,WNW,303,3.1,4.0,59,0.00,,---,0.00,VWS V14.00,2013-03-02 02:55:00,
2013-03-01 22:00:00,34.6,21.8,29.65,WNW,303,3.1,3.1,59,0.00,,---,0.00,VWS V14.00,2013-03-02 03:00:00,
2013-03-01 22:05:00,34.6,21.8,29.65,NW,306,3.6,3.6,59,0.00,,---,0.00,VWS V14.00,2013-03-02 03:05:00,
2013-03-01 22:10:00,34.6,21.8,29.65,WNW,300,3.1,3.1,59,0.00,,---,0.00,VWS V14.00,2013-03-02 03:10:00,
2013-03-01 22:15:00,34.6,21.8,29.65,WNW,300,3.6,3.6,59,0.00,,---,0.00,VWS V14.00,2013-03-02 03:15:00,
2013-03-01 22:20:00,34.6,21.8,29.65,NW,312,3.1,3.6,59,0.00,,---,0.00,VWS V14.00,2013-03-02 03:20:00,
2013-03-01 22:25:00,34.4,22.0,29.65,NW,304,2.7,3.6,60,0.00,,---,0.00,VWS V14.00,2013-03-02 03:25:00,
2013-03-01 22:30:00,34.4,22.0,29.65,WNW,297,4.5,4.9,60,0.00,,---,0.00,VWS V14.00,2013-03-02 03:30:00,
2013-03-01 22:35:00,34.4,22.0,29.65,WNW,300,4.0,4.0,60,0.00,,---,0.00,VWS V14.00,2013-03-02 03:35:00,
2013-03-01 22:40:00,34.6,21.8,29.65,WNW,301,3.1,4.0,59,0.00,,---,0.00,VWS V14.00,2013-03-02 03:40:00,
2013-03-01 22:45:00,34.4,22.0,29.65,NW,304,3.1,3.6,60,0.00,,---,0.00,VWS V14.00,2013-03-02 03:45:00,
2013-03-01 22:50:00,34.4,22.0,29.65,NW,306,2.7,4.0,60,0.00,,---,0.00,VWS V14.00,2013-03-02 03:50:00,
2013-03-01 22:55:00,34.4,22.0,29.65,NW,306,3.6,3.6,60,0.00,,---,0.00,VWS V14.00,2013-03-02 03:55:00,
2013-03-01 23:00:00,34.4,22.0,29.65,NW,310,3.6,3.6,60,0.00,,---,0.00,VWS V14.00,2013-03-02 04:00:00,
2013-03-01 23:05:00,34.4,22.0,29.65,WNW,301,3.1,4.0,60,0.00,,---,0.00,VWS V14.00,2013-03-02 04:05:00,
2013-03-01 23:10:00,34.4,22.0,29.65,NW,307,3.1,4.0,60,0.00,,---,0.00,VWS V14.00,2013-03-02 04:10:00,
2013-03-01 23:15:00,34.4,22.0,29.65,NW,321,4.0,4.0,60,0.00,,---,0.00,VWS V14.00,2013-03-02 04:15:00,
2013-03-01 23:20:00,34.2,21.8,29.65,NW,310,3.6,3.6,60,0.00,,---,0.00,VWS V14.00,2013-03-02 04:20:00,
2013-03-01 23:25:00,34.2,21.8,29.65,NW,310,3.6,4.0,60,0.00,,---,0.00,VWS V14.00,2013-03-02 04:25:00,
2013-03-01 23:30:00,34.2,21.8,29.65,NW,305,3.1,3.1,60,0.00,,---,0.00,VWS V14.00,2013-03-02 04:30:00,
2013-03-01 23:35:00,34.1,21.6,29.65,NW,312,4.0,4.0,60,0.00,,---,0.00,VWS V14.00,2013-03-02 04:35:00,
2013-03-01 23:40:00,34.1,21.6,29.65,NW,315,3.6,5.8,60,0.00,,---,0.00,VWS V14.00,2013-03-02 04:40:00,
2013-03-01 23:45:00,34.1,21.6,29.65,NW,317,3.6,3.6,60,0.00,,---,0.00,VWS V14.00,2013-03-02 04:45:00,
2013-03-01 23:50:00,34.1,21.6,29.65,WNW,302,3.6,3.6,60,0.00,,---,0.00,VWS V14.00,2013-03-02 04:50:00,
2013-03-01 23:55:00,33.9,21.1,29.65,NW,317,5.8,6.3,59,0.00,,---,0.00,VWS V14.00,2013-03-02 04:55:00,